Location: Banff
(51.1667°N, 115.5667°W)
Time: 15:19:50
(UTC+00:00)

Altair - Pass Details

Date: 29 November 2020
Orbit: 1501 x 1682 km, 47.2° (Epoch: 15 January)

Event Time Altitude Azimuth Distance (km) Brightness Sun altitude
Rises 04:29:16 0° 228° (SW) 4,714 10.3 -44.1°
Reaches altitude 10° 04:32:29 10° 223° (SW) 3,711 9.6 -44.6°
Enters shadow 04:34:28 18° 218° (SW) 3,119 9.1 -44.9°
